Tracking 20040 objects as of 19-Nov-2019
Live streaming from Space Station
objects crossing your sky now

COSMOS 1275 DEB

Track COSMOS 1275 DEB now!
10-day predictions


NORAD ID: 27734
Int'l Code: 1981-053MV
Perigee: 846.4 km
Apogee: 1,005.3 km
Inclination: 83.1 °
Period: 103.4 minutes
Semi major axis: 7296 km
RCS: 0.0056 m2 (small)
Launch date: June 4, 1981
Source: Commonwealth of Independent States (former USSR) (CIS)
Launch site: PLESETSK MISSILE AND SPACE COMPLEX (PKMTR)

Note: This is SATELLITE DEBRIS
aabbcc
Your satellite tracking list
Your tracking list is empty




NASA's NSSDC Master Catalog

Two Line Element Set (TLE):
1 27734U 81053MP  19322.75706083  .00000654  00000-0  46848-3 0  9991
2 27734  83.1218  69.7922 0108934 106.3825 254.9350 13.92836349221059
Source of the keplerian elements: AFSPC